EW9904 Weather Reports


Display with metric or nautical units.
time (UTC)temp
F
wind
direction
speed
MPH
gust
MPH
rain 1hr
in
rain 24hr
in
rain mn
in
humidity
%
barometer
mb
20260905152502 79 9 3.0 8.0 0.00 0.00 0.00 70 1011.6
20260905152005 79 18 2.0 8.0 0.00 0.00 0.00 69 1011.5
20260905151503 79 23 2.0 4.0 0.00 0.00 0.00 71 1011.6
20260905151004 78 23 2.0 4.0 0.00 0.00 0.00 69 1011.6
20260905150005 79 23 2.0 9.0 0.00 0.00 0.00 71 1011.6
20260905145002 78 53 3.0 6.0 0.00 0.00 0.00 69 1011.6
20260905144505 78 35 2.0 5.0 0.00 0.00 0.00 70 1011.6
20260905144002 78 310 2.0 7.0 0.00 0.00 0.00 72 1011.5
20260905142502 77 35 3.0 9.0 0.00 0.00 0.00 70 1011.4
20260905142002 77 57 3.0 11.0 0.00 0.00 0.00 70 1011.3
20260905141503 78 46 3.0 11.0 0.00 0.00 0.00 72 1011.2
20260905141002 78 30 4.0 11.0 0.00 0.00 0.00 71 1011.2
20260905140005 79 5 3.0 5.0 0.00 0.00 0.00 71 1011.1
20260905135502 79 5 4.0 11.0 0.00 0.00 0.00 73 1010.9
20260905134501 79 24 2.0 5.0 0.00 0.00 0.00 71 1010.9
20260905134003 79 25 3.0 6.0 0.00 0.00 0.00 72 1010.8
20260905133502 78 24 3.0 6.0 0.00 0.00 0.00 72 1010.7
20260905133002 78 30 3.0 8.0 0.00 0.00 0.00 70 1010.6
20260905132501 78 360 3.0 8.0 0.00 0.00 0.00 70 1010.5
20260905132003 78 26 3.0 8.0 0.00 0.00 0.00 72 1010.6
20260905131503 78 9 3.0 7.0 0.00 0.00 0.00 70 1010.6
20260905131002 78 46 2.0 6.0 0.00 0.00 0.00 73 1010.5
20260905130003 77 69 3.0 5.0 0.00 0.00 0.00 74 1010.5
20260905125502 76 69 2.0 6.0 0.00 0.00 0.00 75 1010.5
20260905125003 76 69 1.0 6.0 0.00 0.00 0.00 78 1010.6
20260905124501 75 68 1.0 4.0 0.00 0.00 0.00 79 1010.7
20260905124002 75 68 2.0 6.0 0.00 0.00 0.00 79 1010.6
20260905123501 75 68 2.0 6.0 0.00 0.00 0.00 79 1010.6
20260905123002 75 40 2.0 5.0 0.00 0.00 0.00 83 1010.6
20260905122501 76 40 3.0 8.0 0.00 0.00 0.00 82 1010.7
20260905122003 75 42 3.0 7.0 0.00 0.00 0.00 84 1010.7
20260905121502 75 78 2.0 6.0 0.00 0.00 0.00 86 1010.7
20260905120502 73 13 0.0 3.0 0.00 0.00 0.00 92 1010.5
20260905120002 73 13 0.0 1.0 0.00 0.00 0.00 93 1010.4
20260905115501 73 13 0.0 1.0 0.00 0.00 0.00 93 1010.3
20260905115000 73 13 0.0 1.0 0.00 0.00 0.00 93 1010.3
20260905114501 73 13 0.0 1.0 0.00 0.00 0.00 94 1010.3
20260905114001 73 13 0.0 1.0 0.00 0.00 0.00 94 1010.3
20260905113500 72 13 0.0 1.0 0.00 0.00 0.00 93 1010.2
20260905112500 72 13 0.0 1.0 0.00 0.00 0.00 94 1010.2
20260905112001 72 13 0.0 1.0 0.00 0.00 0.00 94 1010.1
20260905111500 72 13 0.0 1.0 0.00 0.00 0.00 94 1010.1
20260905111001 72 13 0.0 1.0 0.00 0.00 0.00 94 1010.1
20260905110500 72 13 0.0 1.0 0.00 0.00 0.00 94 1010.1
20260905110005 72 13 0.0 1.0 0.00 0.00 0.00 94 1010.0
20260905105502 72 13 0.0 1.0 0.00 0.00 0.00 94 1009.9
20260905105003 72 13 0.0 1.0 0.00 0.00 0.00 94 1009.8
20260905104502 72 13 0.0 1.0 0.00 0.00 0.00 94 1009.7
20260905103502 72 13 0.0 3.0 0.00 0.00 0.00 93 1009.6
20260905103002 72 13 1.0 2.0 0.00 0.00 0.00 93 1009.6
20260905101002 72 13 0.0 1.0 0.00 0.00 0.00 93 1009.2
20260905100502 72 13 0.0 1.0 0.00 0.00 0.00 93 1009.1
20260905100005 72 13 0.0 1.0 0.00 0.00 0.00 93 1009.2
20260905095500 72 13 0.0 1.0 0.00 0.00 0.00 93 1009.3
20260905095001 72 13 0.0 1.0 0.00 0.00 0.00 93 1009.2
20260905094500 72 13 0.0 1.0 0.00 0.00 0.00 93 1009.2
20260905094001 72 13 0.0 0.0 0.00 0.00 0.00 93 1009.2
20260905093500 73 13 0.0 1.0 0.00 0.00 0.00 93 1009.3
20260905093003 72 13 0.0 1.0 0.00 0.00 0.00 93 1009.3
20260905092459 73 13 0.0 0.0 0.00 0.00 0.00 93 1009.3
20260905092013 73 13 0.0 1.0 0.00 0.00 0.00 93 1009.3
20260905091500 73 13 0.0 1.0 0.00 0.00 0.00 93 1009.4
20260905091000 73 13 0.0 0.0 0.00 0.00 0.00 93 1009.3
20260905090501 73 13 0.0 0.0 0.00 0.00 0.00 93 1009.3
20260905090009 73 13 0.0 0.0 0.00 0.00 0.00 93 1009.3
20260905084500 73 13 0.0 1.0 0.00 0.00 0.00 93 1009.2
20260905084000 73 13 0.0 1.0 0.00 0.00 0.00 93 1009.2
20260905083500 73 13 0.0 1.0 0.00 0.00 0.00 93 1009.2
20260905083001 73 13 0.0 1.0 0.00 0.00 0.00 92 1009.3
20260905082500 74 13 0.0 1.0 0.00 0.00 0.00 92 1009.3
20260905082003 74 13 0.0 0.0 0.00 0.00 0.00 92 1009.4
20260905081501 74 13 0.0 0.0 0.00 0.00 0.00 92 1009.3
20260905081002 74 13 0.0 0.0 0.00 0.00 0.00 92 1009.3
20260905080503 74 13 0.0 0.0 0.00 0.00 0.00 92 1009.4
20260905080001 74 13 0.0 1.0 0.00 0.02 0.00 92 1009.4
20260905075001 74 13 0.0 1.0 0.00 0.02 0.00 91 1009.5
20260905074500 75 13 0.0 2.0 0.00 0.02 0.00 91 1009.4
20260905074001 75 13 0.0 2.0 0.00 0.02 0.00 91 1009.4
20260905073500 75 13 0.0 1.0 0.00 0.02 0.00 91 1009.4
20260905073001 75 13 0.0 1.0 0.00 0.02 0.00 91 1009.5
20260905072500 75 13 0.0 1.0 0.00 0.02 0.00 90 1009.5
20260905072001 75 13 0.0 1.0 0.00 0.02 0.00 90 1009.6
20260905071459 75 13 0.0 1.0 0.00 0.02 0.00 90 1009.6
20260905071001 76 13 1.0 3.0 0.00 0.02 0.00 90 1009.7
20260905070501 76 13 1.0 3.0 0.00 0.02 0.00 89 1009.7
20260905070000 76 13 0.0 3.0 0.00 0.14 0.00 89 1009.8
20260905065500 76 13 1.0 4.0 0.00 0.14 0.00 89 1009.9
20260905065001 76 13 2.0 4.0 0.00 0.14 0.00 89 1009.9
20260905064500 76 330 1.0 3.0 0.00 0.14 0.00 89 1010.0
20260905064000 76 330 2.0 4.0 0.00 0.14 0.00 88 1009.9
20260905063500 77 330 2.0 6.0 0.00 0.14 0.00 88 1009.9
20260905063003 77 330 1.0 6.0 0.00 0.14 0.00 88 1009.9
20260905062501 77 325 1.0 4.0 0.00 0.14 0.00 88 1009.8
20260905062001 77 325 2.0 4.0 0.00 0.14 0.00 88 1009.9
20260905061501 77 325 2.0 5.0 0.00 0.14 0.00 88 1010.0
20260905061000 77 325 2.0 5.0 0.00 0.14 0.00 88 1010.0
20260905060501 77 328 2.0 5.0 0.00 0.14 0.00 88 1010.0
20260905055959 77 329 1.0 4.0 0.00 0.66 0.00 88 1010.0
20260905055459 77 330 1.0 4.0 0.00 0.66 0.00 89 1009.9
20260905055000 77 329 1.0 2.0 0.00 0.66 0.00 89 1009.8
20260905054459 77 329 1.0 4.0 0.00 0.66 0.00 88 1009.8
20260905053459 77 331 1.0 3.0 0.00 0.66 0.00 89 1010.0
20260905052959 77 331 1.0 3.0 0.00 0.66 0.00 89 1010.1
20260905052459 77 331 1.0 2.0 0.00 0.66 0.00 89 1010.1
20260905052000 77 331 1.0 3.0 0.00 0.66 0.00 89 1010.1
20260905051459 77 331 1.0 3.0 0.00 0.66 0.00 89 1010.1
20260905051001 77 331 1.0 2.0 0.00 0.66 0.00 89 1010.2
20260905050006 76 331 0.0 2.0 0.00 0.66 0.00 89 1010.4
20260905045005 76 331 1.0 2.0 0.00 0.66 0.00 89 1010.5
20260905044504 76 331 0.0 3.0 0.00 0.66 0.00 89 1010.5
20260905044005 76 331 0.0 2.0 0.00 0.66 0.00 89 1010.6
20260905043504 76 331 0.0 3.0 0.00 0.66 0.00 89 1010.5
20260905043007 76 331 1.0 3.0 0.00 0.66 0.00 89 1010.5
20260905042504 75 331 1.0 3.0 0.00 0.66 0.00 89 1010.6
20260905042007 75 331 0.0 2.0 0.00 0.66 0.00 90 1010.6
20260905040505 75 331 0.0 1.0 0.00 0.66 0.00 90 1010.6
20260905035505 76 331 0.0 1.0 0.00 0.66 0.66 89 1010.6
20260905035005 76 331 0.0 0.0 0.00 0.66 0.66 88 1010.6
20260905034505 76 331 0.0 2.0 0.00 0.66 0.66 88 1010.7
20260905034006 76 331 0.0 2.0 0.00 0.66 0.66 88 1010.7
20260905033504 76 331 0.0 0.0 0.00 0.66 0.66 88 1010.6
20260905033006 76 331 0.0 0.0 0.00 0.66 0.66 88 1010.7
20260905032505 76 331 0.0 0.0 0.00 0.66 0.66 87 1010.8
20260905032006 76 331 0.0 0.0 0.00 0.66 0.66 87 1010.9
20260905031504 76 331 0.0 0.0 0.00 0.66 0.66 87 1011.0
20260905031005 76 331 0.0 2.0 0.00 0.66 0.66 87 1011.1
20260905030506 76 331 0.0 2.0 0.00 0.66 0.66 87 1011.1
20260905030007 76 331 0.0 0.0 0.00 0.66 0.66 87 1011.1
20260905025505 76 331 0.0 1.0 0.00 0.66 0.66 87 1011.2
20260905025005 76 331 0.0 1.0 0.00 0.66 0.66 87 1011.2
20260905024503 77 331 0.0 1.0 0.00 0.66 0.66 87 1011.2
20260905024005 77 331 0.0 1.0 0.00 0.66 0.66 87 1011.2
20260905023503 77 331 0.0 1.0 0.00 0.66 0.66 87 1011.1
20260905023006 77 331 0.0 1.0 0.00 0.66 0.66 87 1011.2
20260905022503 77 331 0.0 1.0 0.00 0.66 0.66 88 1011.2
20260905022007 77 331 0.0 1.0 0.00 0.66 0.66 88 1011.1
20260905021505 77 331 0.0 1.0 0.00 0.66 0.66 89 1011.2
20260905021005 77 331 0.0 0.0 0.00 0.66 0.66 89 1011.1
20260905020504 77 331 0.0 0.0 0.00 0.66 0.66 88 1011.1
20260905020005 77 331 0.0 0.0 0.00 0.66 0.66 88 1011.1
20260905015005 76 331 0.0 0.0 0.00 0.66 0.66 89 1011.3
20260905014005 77 331 0.0 0.0 0.00 0.66 0.66 89 1011.3
20260905013504 76 331 0.0 0.0 0.00 0.66 0.66 89 1011.2
20260905012504 77 331 0.0 0.0 0.00 0.66 0.66 89 1011.3
20260905012004 76 331 0.0 0.0 0.00 0.66 0.66 88 1011.2
20260905011503 77 331 0.0 0.0 0.00 0.66 0.66 88 1011.2
20260905011005 77 331 0.0 0.0 0.00 0.66 0.66 88 1011.1
20260905005504 76 331 0.0 0.0 0.00 0.66 0.66 88 1011.3
20260905005006 76 331 0.0 0.0 0.00 0.66 0.66 87 1011.2
20260905004505 76 331 0.0 0.0 0.00 0.66 0.66 87 1011.1
20260905004005 77 331 0.0 0.0 0.00 0.66 0.66 87 1011.2
20260905003504 77 331 0.0 0.0 0.00 0.66 0.66 87 1011.2
20260905003005 77 331 0.0 0.0 0.00 0.66 0.66 86 1011.2
20260905002504 77 331 0.0 0.0 0.00 0.66 0.66 86 1011.2
20260905002004 77 331 0.0 1.0 0.00 0.66 0.66 87 1011.1
20260905001005 77 331 0.0 0.0 0.00 0.66 0.66 86 1010.8
20260905000504 77 331 0.0 1.0 0.00 0.66 0.66 86 1010.6
20260905000006 77 331 0.0 1.0 0.00 0.66 0.66 86 1010.6
20260904235504 77 331 0.0 1.0 0.00 0.66 0.66 86 1010.6
20260904234004 77 331 0.0 0.0 0.00 0.66 0.66 85 1010.4
20260904233503 78 331 0.0 0.0 0.00 0.66 0.66 83 1010.5
20260904233006 78 331 0.0 0.0 0.00 0.66 0.66 84 1010.5
20260904232502 78 331 0.0 0.0 0.00 0.66 0.66 85 1010.5
20260904232005 78 331 0.0 1.0 0.00 0.66 0.66 84 1010.6
20260904231503 78 331 0.0 1.0 0.00 0.66 0.66 84 1010.7
20260904231004 79 331 0.0 1.0 0.00 0.66 0.66 84 1010.8
20260904230005 80 331 0.0 1.0 0.00 0.66 0.66 82 1011.0
20260904225503 80 331 0.0 0.0 0.00 0.66 0.66 79 1011.2
20260904225004 81 331 0.0 1.0 0.00 0.66 0.66 78 1011.4
20260904224503 81 331 0.0 1.0 0.00 0.66 0.66 78 1011.5
20260904224003 81 331 1.0 1.0 0.00 0.66 0.66 78 1011.5
20260904223505 81 331 1.0 2.0 0.00 0.66 0.66 79 1011.7
20260904223004 81 331 0.0 2.0 0.00 0.66 0.66 78 1011.7
20260904222502 81 331 0.0 2.0 0.00 0.66 0.66 79 1011.8
20260904222004 82 331 0.0 2.0 0.00 0.66 0.66 78 1011.6
20260904221004 82 331 1.0 3.0 0.00 0.66 0.66 76 1011.5
20260904220503 83 331 1.0 3.0 0.00 0.66 0.66 75 1011.7
20260904220008 83 331 1.0 5.0 0.00 0.66 0.66 74 1011.7
20260904215504 83 331 1.0 5.0 0.00 0.66 0.66 76 1011.7
20260904214503 83 335 2.0 7.0 0.00 0.66 0.66 75 1011.5
20260904213004 84 335 1.0 6.0 0.00 0.66 0.66 74 1011.2
20260904212504 84 344 1.0 5.0 0.00 0.66 0.66 73 1011.0
20260904211505 85 344 2.0 4.0 0.00 0.66 0.66 72 1011.1
20260904210504 86 345 2.0 8.0 0.00 0.66 0.66 72 1011.3
20260904210005 85 330 2.0 4.0 0.00 0.66 0.66 70 1011.4
20260904205503 86 331 4.0 11.0 0.00 0.66 0.66 71 1011.5
20260904205004 86 332 5.0 11.0 0.00 0.66 0.66 68 1011.5
20260904204503 86 337 3.0 9.0 0.00 0.66 0.66 70 1011.6
20260904204003 86 347 4.0 9.0 0.00 0.66 0.66 68 1011.5
20260904203004 87 331 4.0 9.0 0.00 0.66 0.66 70 1011.5
20260904202502 87 242 4.0 9.0 0.00 0.66 0.66 70 1011.4
20260904202004 86 340 3.0 8.0 0.00 0.66 0.66 68 1011.3
20260904201504 87 329 3.0 6.0 0.00 0.66 0.66 69 1011.3
20260904200502 87 355 3.0 9.0 0.00 0.66 0.66 68 1011.5
20260904195504 87 334 2.0 4.0 0.00 0.66 0.66 69 1011.6
20260904195005 86 334 2.0 5.0 0.00 0.66 0.66 73 1011.6
20260904194004 85 336 3.0 6.0 0.00 0.66 0.66 69 1011.8
20260904193504 85 340 2.0 6.0 0.00 0.66 0.66 72 1011.8
20260904192502 87 348 2.0 5.0 0.00 0.66 0.66 69 1011.8
20260904192004 86 348 3.0 5.0 0.00 0.66 0.66 72 1011.9
20260904191503 86 348 3.0 6.0 0.00 0.66 0.66 69 1011.9
20260904191004 86 348 4.0 9.0 0.00 0.66 0.66 68 1011.9
20260904190504 87 344 4.0 9.0 0.00 0.66 0.66 67 1012.0
20260904190006 87 333 3.0 9.0 0.00 0.66 0.66 66 1012.1
20260904185502 87 331 2.0 8.0 0.00 0.66 0.66 71 1012.1
20260904185003 87 331 3.0 8.0 0.00 0.66 0.66 70 1012.2
20260904183503 87 346 2.0 6.0 0.00 0.66 0.66 67 1012.1
20260904182503 87 346 2.0 6.0 0.00 0.66 0.66 68 1012.1
20260904182004 87 346 3.0 7.0 0.00 0.66 0.66 69 1012.2
20260904181503 87 348 3.0 7.0 0.00 0.66 0.66 69 1012.2
20260904180007 87 333 5.0 13.0 0.00 0.66 0.66 66 1012.3
20260904175502 87 347 4.0 11.0 0.00 0.66 0.66 69 1012.4
20260904175002 87 334 2.0 8.0 0.00 0.66 0.66 69 1012.4
20260904174004 87 355 6.0 11.0 0.00 0.66 0.66 68 1012.3
20260904173503 87 333 4.0 11.0 0.00 0.66 0.66 69 1012.4
20260904173003 87 309 4.0 10.0 0.00 0.66 0.66 70 1012.4
20260904172501 87 355 3.0 8.0 0.00 0.66 0.66 67 1012.5
20260904172002 86 346 2.0 8.0 0.00 0.66 0.66 69 1012.5
20260904170502 86 323 4.0 11.0 0.00 0.66 0.66 72 1012.6
20260904170006 86 350 4.0 11.0 0.00 0.66 0.66 69 1012.6
20260904165502 85 339 2.0 9.0 0.00 0.66 0.66 72 1012.6
20260904165003 86 340 2.0 9.0 0.00 0.66 0.66 73 1012.6
20260904164502 86 346 3.0 8.0 0.00 0.66 0.66 73 1012.7
20260904163502 85 316 3.0 10.0 0.00 0.66 0.66 72 1012.8
20260904163002 85 297 3.0 10.0 0.00 0.66 0.66 73 1012.9
20260904162502 85 350 3.0 6.0 0.00 0.66 0.66 72 1012.9
20260904162003 85 314 3.0 9.0 0.00 0.66 0.66 75 1013.0
20260904161502 85 336 3.0 9.0 0.00 0.66 0.66 74 1013.0
20260904160502 85 327 5.0 11.0 0.00 0.66 0.66 77 1013.0
20260904160004 84 336 3.0 11.0 0.00 0.66 0.66 72 1012.9
20260904155504 84 338 3.0 8.0 0.00 0.66 0.66 77 1013.0
20260904155006 84 312 3.0 8.0 0.00 0.66 0.66 76 1013.0
20260904154502 83 327 3.0 10.0 0.00 0.66 0.66 76 1012.9
20260904154003 84 334 4.0 10.0 0.00 0.66 0.66 76 1012.8
20260904153503 84 347 4.0 9.0 0.00 0.66 0.66 77 1012.9
20260904153003 83 334 4.0 10.0 0.00 0.66 0.66 76 1013.0